Location: Recife
(8.0585°S, 34.8848°W)
Time: 22:00:35
(UTC-03:00)

Vanguard 2 - Pass Details

Date: 20 April 2026
Orbit: 553 x 2895 km, 32.9° (Epoch: 17 May)

Event Time Altitude Azimuth Distance (km) Brightness Sun altitude
Exits shadow 02:50:09 34° 200° (SSW) 3,670 10.6 -37.8°
Maximum altitude 02:55:56 45° 158° (SSE) 2,965 10.4 -36.4°
Drops below altitude 10° 03:06:46 10° 89° (E) 4,022 12.0 -33.7°
Sets 03:09:41 0° 82° (E) 4,717 12.7 -33.0°
